RYR10XW LERS-EHEH

Flight info

Callsign RYR10XW
Flight time 1h 57m
Altitude 30000
Route ARBEK T113 RUTIP DCT OKABI/N0435F340 DCT TOU DCT ADABI DCT BOKNO UN858 VANAD UN874 ARSAF DCT EGOZE DCT CMB DCT VEKIN DCT ADUTO N873 FERDI Y18 DENUT
Aircraft B38M/M-SDE1FGHILORVWXY/HB1

Departure

Time 2026-04-27 13:54
Airport Reus Airport (LERS)

Arrival

Time 2026-04-27 15:51
Airport Eindhoven Airport (EHEH)
Time Latitude Longitude Altitude Speed Heading
2026-04-27 13:17 41.14755 1.15873 245 ft 0 kts 339°
2026-04-27 13:35 41.14754 1.15873 246 ft 0 kts 339°
2026-04-27 13:36 41.14730 1.15885 246 ft 4 kts 339°
2026-04-27 13:37 41.14707 1.15896 268 ft 2 kts 339°
2026-04-27 13:37 41.14684 1.15902 243 ft 4 kts 18°
2026-04-27 13:37 41.14669 1.15882 243 ft 4 kts 75°
2026-04-27 13:37 41.14663 1.15850 243 ft 2 kts 69°
2026-04-27 13:38 41.14663 1.15848 243 ft 0 kts 69°
2026-04-27 13:45 41.14666 1.15859 243 ft 5 kts 69°
2026-04-27 13:45 41.14691 1.15945 243 ft 13 kts 69°
2026-04-27 13:46 41.14727 1.16068 243 ft 15 kts 69°
2026-04-27 13:46 41.14768 1.16210 243 ft 18 kts 69°
2026-04-27 13:46 41.14815 1.16369 243 ft 19 kts 69°
2026-04-27 13:46 41.14866 1.16544 243 ft 21 kts 69°
2026-04-27 13:47 41.14921 1.16736 243 ft 23 kts 69°
2026-04-27 13:47 41.14981 1.16939 243 ft 25 kts 69°
2026-04-27 13:47 41.15045 1.17157 243 ft 26 kts 68°
2026-04-27 13:47 41.15112 1.17387 243 ft 28 kts 69°
2026-04-27 13:48 41.15184 1.17630 243 ft 29 kts 68°
2026-04-27 13:48 41.15257 1.17879 243 ft 25 kts 69°
2026-04-27 13:48 41.15309 1.18059 243 ft 21 kts 69°
2026-04-27 13:48 41.15345 1.18194 243 ft 13 kts 84°
2026-04-27 13:49 41.15314 1.18251 243 ft 0 kts 166°
2026-04-27 13:49 41.15313 1.18252 243 ft 0 kts 166°
2026-04-27 13:52 41.15304 1.18254 243 ft 4 kts 166°
2026-04-27 13:52 41.15249 1.18281 243 ft 6 kts 159°
2026-04-27 13:52 41.15211 1.18297 243 ft 5 kts 181°
2026-04-27 13:52 41.15194 1.18274 243 ft 0 kts 250°
2026-04-27 13:53 41.15079 1.17880 243 ft 86 kts 249°
2026-04-27 13:53 41.14775 1.16844 243 ft 153 kts 249°
2026-04-27 13:53 41.14338 1.15357 543 ft 182 kts 246°
2026-04-27 13:54 41.13830 1.13877 1468 ft 178 kts 238°
2026-04-27 13:54 41.13183 1.12354 2039 ft 200 kts 238°
2026-04-27 13:54 41.12449 1.10647 2658 ft 226 kts 237°
2026-04-27 13:54 41.11676 1.08826 3763 ft 227 kts 239°
2026-04-27 13:55 41.10894 1.06949 4361 ft 235 kts 239°
2026-04-27 13:55 41.10068 1.04971 5019 ft 253 kts 239°
2026-04-27 13:55 41.09181 1.02861 5799 ft 271 kts 240°
2026-04-27 13:55 41.08248 1.00635 6734 ft 277 kts 240°
2026-04-27 13:56 41.07306 0.98393 7763 ft 280 kts 240°
2026-04-27 13:56 41.06352 0.96122 8776 ft 284 kts 240°
2026-04-27 13:56 41.05387 0.93828 9786 ft 287 kts 240°
2026-04-27 13:56 41.04410 0.91506 10713 ft 290 kts 241°
2026-04-27 13:57 41.03526 0.89100 11601 ft 293 kts 255°
2026-04-27 13:57 41.03402 0.86386 12296 ft 306 kts 277°
2026-04-27 13:57 41.04136 0.83683 12814 ft 323 kts 301°
2026-04-27 13:57 41.05737 0.81551 13488 ft 333 kts 325°
2026-04-27 13:58 41.07868 0.80267 14204 ft 342 kts 345°
2026-04-27 13:58 41.10236 0.79921 14961 ft 347 kts
2026-04-27 13:58 41.12604 0.80580 15667 ft 352 kts 20°
2026-04-27 13:58 41.14910 0.81720 16367 ft 356 kts 18°
2026-04-27 13:59 41.17260 0.82795 17069 ft 359 kts 18°
2026-04-27 13:59 41.19634 0.83880 17778 ft 362 kts 18°
2026-04-27 13:59 41.22032 0.84977 18429 ft 366 kts 18°
2026-04-27 13:59 41.24451 0.86084 19015 ft 369 kts 18°
2026-04-27 14:00 41.26889 0.87201 19598 ft 372 kts 18°
2026-04-27 14:00 41.29348 0.88328 20183 ft 375 kts 18°
2026-04-27 14:00 41.31830 0.89467 20755 ft 378 kts 17°
2026-04-27 14:00 41.34326 0.90614 21316 ft 381 kts 17°
2026-04-27 14:01 41.36843 0.91771 21887 ft 384 kts 17°
2026-04-27 14:01 41.39381 0.92938 22452 ft 387 kts 17°
2026-04-27 14:01 41.41933 0.94114 23002 ft 390 kts 17°
2026-04-27 14:01 41.44508 0.95301 23567 ft 393 kts 17°
2026-04-27 14:02 41.47102 0.96498 24044 ft 396 kts 17°
2026-04-27 14:02 41.49719 0.97706 24492 ft 399 kts 17°
2026-04-27 14:02 41.52346 0.98920 24960 ft 401 kts 18°
2026-04-27 14:02 41.54996 1.00145 25408 ft 404 kts 18°
2026-04-27 14:03 41.57659 1.01377 25844 ft 407 kts 18°
2026-04-27 14:03 41.60343 1.02621 26271 ft 410 kts 18°
2026-04-27 14:03 41.63042 1.03872 26702 ft 412 kts 18°
2026-04-27 14:03 41.65763 1.05134 27133 ft 415 kts 18°
2026-04-27 14:04 41.68502 1.06407 27541 ft 418 kts 18°
2026-04-27 14:04 41.71260 1.07689 27946 ft 421 kts 18°
2026-04-27 14:04 41.74033 1.08980 28328 ft 424 kts 18°
2026-04-27 14:04 41.76823 1.10279 28785 ft 425 kts 18°
2026-04-27 14:05 41.79614 1.11580 29300 ft 424 kts 18°
2026-04-27 14:05 41.82359 1.12861 29808 ft 423 kts 18°
2026-04-27 14:05 41.85183 1.14179 30088 ft 425 kts 18°
2026-04-27 14:06 41.90735 1.16777 30069 ft 422 kts 18°
2026-04-27 14:06 41.96235 1.19353 30073 ft 421 kts 18°
2026-04-27 14:07 42.01774 1.21953 30078 ft 422 kts 18°
2026-04-27 14:07 42.07317 1.24560 30075 ft 422 kts 18°
2026-04-27 14:08 42.12864 1.27174 30083 ft 423 kts 18°
2026-04-27 14:08 42.18414 1.29794 30132 ft 423 kts 18°
2026-04-27 14:09 42.23960 1.32416 30138 ft 422 kts 18°
2026-04-27 14:09 42.29506 1.35044 30132 ft 422 kts 18°
2026-04-27 14:10 42.35048 1.37675 30129 ft 422 kts 18°
2026-04-27 14:10 42.40594 1.40312 30136 ft 422 kts 18°
2026-04-27 14:11 42.46133 1.42951 30143 ft 422 kts 18°
2026-04-27 14:11 42.51789 1.45004 30154 ft 421 kts 13°
2026-04-27 14:12 42.57470 1.46952 30126 ft 422 kts 13°
2026-04-27 14:12 42.60322 1.47904 30329 ft 422 kts
2026-04-27 14:12 42.63238 1.48033 30649 ft 419 kts 352°
2026-04-27 14:12 42.66135 1.47564 30907 ft 421 kts 353°
2026-04-27 14:13 42.69057 1.47137 31156 ft 423 kts 352°
2026-04-27 14:13 42.71989 1.46684 31446 ft 424 kts 352°
2026-04-27 14:13 42.74924 1.46218 31700 ft 426 kts 352°
2026-04-27 14:13 42.77877 1.45744 31955 ft 428 kts 352°
2026-04-27 14:14 42.80837 1.45267 32200 ft 429 kts 352°
2026-04-27 14:14 42.83811 1.44787 32419 ft 431 kts 352°
2026-04-27 14:14 42.86792 1.44306 32657 ft 432 kts 352°
2026-04-27 14:14 42.89777 1.43822 32915 ft 433 kts 352°
2026-04-27 14:15 42.92775 1.43336 33147 ft 434 kts 352°
2026-04-27 14:15 42.95776 1.42850 33379 ft 436 kts 352°
2026-04-27 14:15 42.98787 1.42361 33605 ft 436 kts 352°
2026-04-27 14:15 43.01810 1.41870 33839 ft 438 kts 352°
2026-04-27 14:16 43.04834 1.41379 34060 ft 439 kts 352°
2026-04-27 14:16 43.10913 1.40389 34127 ft 439 kts 351°
2026-04-27 14:17 43.16924 1.39408 34109 ft 438 kts 351°
2026-04-27 14:17 43.22972 1.38419 34114 ft 438 kts 351°
2026-04-27 14:18 43.29018 1.37429 34106 ft 438 kts 351°
2026-04-27 14:18 43.35063 1.36436 34106 ft 437 kts 351°
2026-04-27 14:19 43.41108 1.35442 34109 ft 437 kts 351°
2026-04-27 14:19 43.47148 1.34446 34112 ft 437 kts 351°
2026-04-27 14:20 43.53187 1.33449 34106 ft 437 kts 351°
2026-04-27 14:20 43.59224 1.32450 34107 ft 437 kts 351°
2026-04-27 14:21 43.65269 1.31448 34100 ft 437 kts 351°
2026-04-27 14:21 43.71249 1.30065 34108 ft 436 kts 347°
2026-04-27 14:22 43.77219 1.28495 34108 ft 437 kts 347°
2026-04-27 14:22 43.83191 1.26954 34109 ft 437 kts 347°
2026-04-27 14:23 43.89166 1.25411 34105 ft 436 kts 347°
2026-04-27 14:23 43.95135 1.23867 34101 ft 437 kts 347°
2026-04-27 14:24 44.01113 1.22318 34103 ft 437 kts 347°
2026-04-27 14:24 44.07046 1.20777 34101 ft 437 kts 347°
2026-04-27 14:25 44.13018 1.19222 34104 ft 437 kts 347°
2026-04-27 14:25 44.18996 1.17664 34104 ft 437 kts 347°
2026-04-27 14:26 44.24967 1.16104 34104 ft 437 kts 347°
2026-04-27 14:26 44.30942 1.14539 34096 ft 437 kts 346°
2026-04-27 14:27 44.36914 1.12972 34103 ft 437 kts 346°
2026-04-27 14:27 44.42892 1.11400 34105 ft 437 kts 346°
2026-04-27 14:28 44.48862 1.09827 34103 ft 437 kts 346°
2026-04-27 14:28 44.54841 1.08248 34105 ft 437 kts 346°
2026-04-27 14:29 44.60819 1.06667 34105 ft 437 kts 346°
2026-04-27 14:29 44.66797 1.05081 34098 ft 437 kts 346°
2026-04-27 14:30 44.72780 1.03492 34095 ft 438 kts 346°
2026-04-27 14:30 44.78766 1.01897 34097 ft 438 kts 346°
2026-04-27 14:31 44.84757 1.00299 34097 ft 438 kts 346°
2026-04-27 14:31 44.90752 0.98697 34103 ft 438 kts 346°
2026-04-27 14:32 44.96746 0.97090 34097 ft 438 kts 346°
2026-04-27 14:32 45.02741 0.95480 34099 ft 439 kts 346°
2026-04-27 14:33 45.08744 0.93865 34096 ft 439 kts 346°
2026-04-27 14:33 45.14748 0.92246 34103 ft 439 kts 346°
2026-04-27 14:34 45.20755 0.90623 34103 ft 439 kts 346°
2026-04-27 14:34 45.26723 0.89006 34101 ft 439 kts 346°
2026-04-27 14:35 45.32728 0.87376 34103 ft 439 kts 346°
2026-04-27 14:35 45.38734 0.85742 34102 ft 440 kts 345°
2026-04-27 14:36 45.44744 0.84104 34104 ft 440 kts 345°
2026-04-27 14:36 45.50752 0.82463 34103 ft 440 kts 345°
2026-04-27 14:37 45.56762 0.80817 34116 ft 440 kts 345°
2026-04-27 14:37 45.62770 0.79169 34116 ft 440 kts 345°
2026-04-27 14:38 45.68776 0.77517 34116 ft 440 kts 345°
2026-04-27 14:38 45.74787 0.75861 34119 ft 440 kts 345°
2026-04-27 14:39 45.79784 0.74481 34124 ft 440 kts 345°
2026-04-27 14:39 45.85802 0.72815 34123 ft 440 kts 345°
2026-04-27 14:40 45.91821 0.71146 34126 ft 441 kts 345°
2026-04-27 14:40 45.97844 0.69473 34124 ft 441 kts 345°
2026-04-27 14:41 46.03873 0.67793 34130 ft 441 kts 344°
2026-04-27 14:41 46.09905 0.66109 34135 ft 442 kts 344°
2026-04-27 14:42 46.15942 0.64420 34139 ft 442 kts 344°
2026-04-27 14:42 46.21984 0.62726 34135 ft 442 kts 344°
2026-04-27 14:43 46.28025 0.61028 34135 ft 442 kts 344°
2026-04-27 14:43 46.34067 0.59327 34137 ft 442 kts 343°
2026-04-27 14:44 46.40103 0.57624 34135 ft 442 kts 343°
2026-04-27 14:44 46.46145 0.55915 34135 ft 442 kts 343°
2026-04-27 14:45 46.52187 0.54203 34132 ft 442 kts 343°
2026-04-27 14:45 46.58364 0.53952 34137 ft 456 kts
2026-04-27 14:46 46.64604 0.55905 34133 ft 460 kts
2026-04-27 14:46 46.70854 0.57934 34138 ft 461 kts
2026-04-27 14:47 46.77109 0.59998 34139 ft 461 kts
2026-04-27 14:47 46.83371 0.62070 34140 ft 461 kts
2026-04-27 14:48 46.89629 0.64147 34143 ft 462 kts
2026-04-27 14:48 46.99030 0.67276 34142 ft 462 kts
2026-04-27 14:49 47.05313 0.69227 34122 ft 457 kts 360°
2026-04-27 14:49 47.11638 0.69883 34135 ft 456 kts 358°
2026-04-27 14:50 47.17972 0.70547 34150 ft 456 kts 358°
2026-04-27 14:50 47.24307 0.71209 34148 ft 457 kts 358°
2026-04-27 14:51 47.30650 0.71873 34162 ft 457 kts 358°
2026-04-27 14:51 47.36984 0.72537 34162 ft 457 kts 358°
2026-04-27 14:52 47.43326 0.73204 34166 ft 457 kts 358°
2026-04-27 14:52 47.49616 0.74035 34148 ft 462 kts
2026-04-27 14:53 47.55779 0.76956 34157 ft 466 kts 13°
2026-04-27 14:53 47.61937 0.79947 34156 ft 466 kts 14°
2026-04-27 14:54 47.68083 0.82976 34149 ft 465 kts 14°
2026-04-27 14:54 47.74221 0.86010 34150 ft 464 kts 14°
2026-04-27 14:55 47.80347 0.89046 34153 ft 463 kts 14°
2026-04-27 14:55 47.86452 0.92107 34151 ft 462 kts 14°
2026-04-27 14:56 47.92544 0.95183 34153 ft 462 kts 14°
2026-04-27 14:56 47.98624 0.98258 34153 ft 461 kts 14°
2026-04-27 14:57 48.04697 1.01338 34152 ft 460 kts 14°
2026-04-27 14:57 48.10753 1.04417 34154 ft 460 kts 14°
2026-04-27 14:58 48.16805 1.07503 34162 ft 459 kts 15°
2026-04-27 14:58 48.22849 1.10583 34159 ft 459 kts 15°
2026-04-27 14:59 48.28887 1.13660 34157 ft 458 kts 15°
2026-04-27 14:59 48.34918 1.16741 34162 ft 458 kts 15°
2026-04-27 15:00 48.40952 1.19831 34165 ft 458 kts 15°
2026-04-27 15:00 48.46974 1.22922 34165 ft 457 kts 15°
2026-04-27 15:01 48.52998 1.26022 34169 ft 457 kts 15°
2026-04-27 15:01 48.58983 1.29041 34166 ft 457 kts 14°
2026-04-27 15:02 48.65020 1.32084 34167 ft 457 kts 14°
2026-04-27 15:02 48.71046 1.35131 34170 ft 457 kts 14°
2026-04-27 15:03 48.77070 1.38185 34172 ft 457 kts 14°
2026-04-27 15:03 48.83096 1.41247 34172 ft 456 kts 14°
2026-04-27 15:04 48.89113 1.44313 34178 ft 456 kts 14°
2026-04-27 15:04 48.95111 1.47434 34175 ft 457 kts 19°
2026-04-27 15:05 48.97858 1.49895 34177 ft 462 kts 37°
2026-04-27 15:05 49.00155 1.53343 34191 ft 466 kts 45°
2026-04-27 15:05 49.04542 1.60642 34179 ft 467 kts 46°
2026-04-27 15:06 49.08878 1.68036 34186 ft 468 kts 46°
2026-04-27 15:06 49.13194 1.75456 34179 ft 467 kts 46°
2026-04-27 15:07 49.17507 1.82897 34160 ft 468 kts 46°
2026-04-27 15:07 49.21819 1.90356 34164 ft 468 kts 46°
2026-04-27 15:08 49.26121 1.97819 34166 ft 468 kts 46°
2026-04-27 15:08 49.30420 2.05299 34182 ft 468 kts 46°
2026-04-27 15:09 49.34715 2.12789 34187 ft 468 kts 46°
2026-04-27 15:09 49.39008 2.20302 34185 ft 468 kts 46°
2026-04-27 15:10 49.43294 2.27826 34188 ft 468 kts 46°
2026-04-27 15:10 49.47579 2.35367 34183 ft 468 kts 46°
2026-04-27 15:11 49.51853 2.42910 34181 ft 467 kts 46°
2026-04-27 15:11 49.56401 2.49934 34169 ft 457 kts 28°
2026-04-27 15:12 49.61780 2.55192 34177 ft 458 kts 28°
2026-04-27 15:12 49.67164 2.60446 34178 ft 458 kts 27°
2026-04-27 15:13 49.72522 2.65650 34184 ft 458 kts 27°
2026-04-27 15:13 49.77906 2.70891 34183 ft 457 kts 27°
2026-04-27 15:14 49.83289 2.76144 34188 ft 457 kts 27°
2026-04-27 15:14 49.88663 2.81402 34188 ft 456 kts 27°
2026-04-27 15:15 49.94024 2.86661 34189 ft 456 kts 27°
2026-04-27 15:15 49.99386 2.91936 34186 ft 456 kts 27°
2026-04-27 15:16 50.04741 2.97218 34189 ft 456 kts 27°
2026-04-27 15:16 50.10095 3.02514 34186 ft 456 kts 27°
2026-04-27 15:17 50.15399 3.07774 33980 ft 443 kts 27°
2026-04-27 15:17 50.17975 3.10333 33695 ft 434 kts 27°
2026-04-27 15:17 50.20500 3.12844 33412 ft 430 kts 26°
2026-04-27 15:18 50.23042 3.15286 33111 ft 424 kts 20°
2026-04-27 15:18 50.25703 3.17168 32838 ft 419 kts 17°
2026-04-27 15:18 50.28367 3.19032 32563 ft 419 kts 18°
2026-04-27 15:18 50.31024 3.20896 32289 ft 418 kts 18°
2026-04-27 15:19 50.33669 3.22753 32018 ft 417 kts 17°
2026-04-27 15:19 50.36310 3.24610 31747 ft 415 kts 17°
2026-04-27 15:19 50.38938 3.26458 31433 ft 412 kts 17°
2026-04-27 15:19 50.41531 3.28409 30899 ft 415 kts 20°
2026-04-27 15:20 50.44120 3.30433 30322 ft 417 kts 19°
2026-04-27 15:20 50.46714 3.32447 29850 ft 414 kts 19°
2026-04-27 15:20 50.49288 3.34442 29417 ft 411 kts 19°
2026-04-27 15:20 50.51852 3.36354 28970 ft 405 kts 16°
2026-04-27 15:21 50.54430 3.38094 28552 ft 402 kts 16°
2026-04-27 15:21 50.56982 3.39842 28183 ft 398 kts 17°
2026-04-27 15:21 50.59507 3.41581 27789 ft 395 kts 17°
2026-04-27 15:21 50.62010 3.43311 27390 ft 392 kts 17°
2026-04-27 15:22 50.64498 3.45034 27001 ft 389 kts 17°
2026-04-27 15:22 50.66970 3.46749 26618 ft 387 kts 17°
2026-04-27 15:22 50.69423 3.48452 26240 ft 385 kts 17°
2026-04-27 15:22 50.71863 3.50148 25865 ft 382 kts 17°
2026-04-27 15:23 50.73473 3.51269 25610 ft 381 kts 17°
2026-04-27 15:23 50.75895 3.52955 25241 ft 379 kts 18°
2026-04-27 15:23 50.78300 3.54631 24877 ft 377 kts 18°
2026-04-27 15:23 50.80696 3.56304 24513 ft 376 kts 18°
2026-04-27 15:24 50.83081 3.57972 24139 ft 374 kts 18°
2026-04-27 15:24 50.85455 3.59632 23782 ft 372 kts 18°
2026-04-27 15:24 50.87821 3.61288 23367 ft 371 kts 18°
2026-04-27 15:24 50.90175 3.62918 22964 ft 367 kts 15°
2026-04-27 15:25 50.92616 3.63737 22503 ft 353 kts 356°
2026-04-27 15:25 50.95046 3.63874 22205 ft 348 kts 357°
2026-04-27 15:25 50.97458 3.64063 21863 ft 345 kts 356°
2026-04-27 15:25 50.99844 3.64231 21507 ft 342 kts 356°
2026-04-27 15:26 51.02215 3.64389 21156 ft 339 kts 356°
2026-04-27 15:26 51.04565 3.64542 20806 ft 337 kts 356°
2026-04-27 15:26 51.06900 3.64692 20464 ft 335 kts 357°
2026-04-27 15:26 51.09219 3.64840 20122 ft 333 kts 357°
2026-04-27 15:27 51.11525 3.64988 19778 ft 331 kts 357°
2026-04-27 15:27 51.13816 3.65134 19439 ft 329 kts 357°
2026-04-27 15:27 51.16093 3.65280 19105 ft 327 kts 357°
2026-04-27 15:27 51.18364 3.65425 18770 ft 325 kts 358°
2026-04-27 15:28 51.20621 3.65570 18419 ft 324 kts 357°
2026-04-27 15:28 51.22861 3.65909 18098 ft 325 kts 11°
2026-04-27 15:28 51.24903 3.67424 17923 ft 326 kts 31°
2026-04-27 15:28 51.26780 3.69501 17731 ft 329 kts 31°
2026-04-27 15:29 51.28653 3.71590 17495 ft 328 kts 31°
2026-04-27 15:29 51.30512 3.73691 17282 ft 327 kts 32°
2026-04-27 15:29 51.32357 3.75796 17057 ft 325 kts 32°
2026-04-27 15:29 51.34194 3.77900 16830 ft 324 kts 32°
2026-04-27 15:30 51.36020 3.80000 16611 ft 322 kts 32°
2026-04-27 15:30 51.37838 3.82093 16388 ft 321 kts 32°
2026-04-27 15:30 51.39650 3.84184 16170 ft 320 kts 33°
2026-04-27 15:30 51.41235 3.86687 15897 ft 324 kts 55°
2026-04-27 15:31 51.42128 3.89970 15698 ft 322 kts 74°
2026-04-27 15:31 51.42694 3.93457 15484 ft 324 kts 75°
2026-04-27 15:31 51.43251 3.96950 15262 ft 323 kts 75°
2026-04-27 15:31 51.43793 4.00436 15041 ft 322 kts 76°
2026-04-27 15:32 51.44319 4.03870 14826 ft 321 kts 76°
2026-04-27 15:32 51.44850 4.07378 14607 ft 319 kts 76°
2026-04-27 15:32 51.45371 4.10828 14374 ft 318 kts 76°
2026-04-27 15:32 51.45886 4.14266 14155 ft 316 kts 76°
2026-04-27 15:33 51.46392 4.17642 13935 ft 315 kts 76°
2026-04-27 15:33 51.46901 4.21055 13692 ft 314 kts 76°
2026-04-27 15:33 51.47414 4.24491 13469 ft 312 kts 76°
2026-04-27 15:33 51.47915 4.27868 13251 ft 311 kts 76°
2026-04-27 15:34 51.48416 4.31235 13036 ft 309 kts 76°
2026-04-27 15:34 51.48904 4.34532 12824 ft 307 kts 76°
2026-04-27 15:34 51.49395 4.37853 12619 ft 306 kts 76°
2026-04-27 15:34 51.49889 4.41208 12400 ft 304 kts 76°
2026-04-27 15:35 51.50373 4.44502 12194 ft 302 kts 76°
2026-04-27 15:35 51.50848 4.47736 11999 ft 301 kts 76°
2026-04-27 15:35 51.51326 4.50993 11784 ft 300 kts 76°
2026-04-27 15:35 51.51945 4.54227 11545 ft 298 kts 60°
2026-04-27 15:36 51.53081 4.56923 11352 ft 295 kts 53°
2026-04-27 15:36 51.54268 4.59608 11160 ft 295 kts 53°
2026-04-27 15:36 51.55455 4.62289 10957 ft 293 kts 53°
2026-04-27 15:36 51.56637 4.64951 10772 ft 292 kts 53°
2026-04-27 15:37 51.57818 4.67609 10567 ft 291 kts 53°
2026-04-27 15:37 51.58991 4.70247 10364 ft 290 kts 53°
2026-04-27 15:37 51.60160 4.72881 10167 ft 288 kts 53°
2026-04-27 15:37 51.61315 4.75486 9957 ft 285 kts 53°
2026-04-27 15:38 51.62467 4.78081 9746 ft 284 kts 53°
2026-04-27 15:38 51.63611 4.80666 9429 ft 284 kts 53°
2026-04-27 15:38 51.64752 4.83246 9148 ft 281 kts 53°
2026-04-27 15:38 51.65875 4.85788 8929 ft 276 kts 53°
2026-04-27 15:39 51.66979 4.88291 8730 ft 274 kts 54°
2026-04-27 15:39 51.67982 4.90890 8502 ft 275 kts 69°
2026-04-27 15:39 51.68241 4.93906 8301 ft 274 kts 96°
2026-04-27 15:39 51.67702 4.96830 8132 ft 273 kts 113°
2026-04-27 15:40 51.66943 4.99639 7956 ft 273 kts 113°
2026-04-27 15:40 51.66176 5.02426 7784 ft 272 kts 114°
2026-04-27 15:40 51.65402 5.05205 7588 ft 272 kts 114°
2026-04-27 15:40 51.64622 5.07977 7395 ft 271 kts 114°
2026-04-27 15:41 51.63800 5.10682 7194 ft 269 kts 124°
2026-04-27 15:41 51.62575 5.12938 7018 ft 267 kts 134°
2026-04-27 15:41 51.61294 5.15106 6836 ft 266 kts 133°
2026-04-27 15:41 51.60021 5.17260 6665 ft 266 kts 133°
2026-04-27 15:42 51.58751 5.19405 6473 ft 264 kts 133°
2026-04-27 15:42 51.57485 5.21539 6289 ft 263 kts 133°
2026-04-27 15:42 51.56222 5.23665 6101 ft 262 kts 133°
2026-04-27 15:42 51.54976 5.25760 5937 ft 256 kts 133°
2026-04-27 15:43 51.53763 5.27799 5757 ft 250 kts 133°
2026-04-27 15:43 51.52574 5.29793 5592 ft 244 kts 133°
2026-04-27 15:43 51.51408 5.31739 5420 ft 240 kts 135°
2026-04-27 15:43 51.50003 5.33109 5187 ft 238 kts 165°
2026-04-27 15:44 51.48374 5.33152 4987 ft 236 kts 195°
2026-04-27 15:44 51.46940 5.31892 4880 ft 239 kts 224°
2026-04-27 15:44 51.46012 5.29710 4757 ft 239 kts 251°
2026-04-27 15:44 51.45628 5.27126 4595 ft 239 kts 260°
2026-04-27 15:45 51.45319 5.24499 4396 ft 238 kts 261°
2026-04-27 15:45 51.44893 5.21962 4171 ft 236 kts 241°
2026-04-27 15:45 51.43816 5.20046 3971 ft 231 kts 216°
2026-04-27 15:45 51.42528 5.18553 3800 ft 226 kts 216°
2026-04-27 15:46 51.41258 5.17085 3712 ft 224 kts 214°
2026-04-27 15:46 51.40005 5.15724 3618 ft 213 kts 205°
2026-04-27 15:46 51.38596 5.15326 3354 ft 205 kts 170°
2026-04-27 15:46 51.37321 5.16151 3179 ft 193 kts 139°
2026-04-27 15:47 51.36408 5.17654 3067 ft 187 kts 125°
2026-04-27 15:47 51.35592 5.19284 3041 ft 188 kts 125°
2026-04-27 15:47 51.34785 5.20934 2882 ft 189 kts 125°
2026-04-27 15:47 51.34201 5.22766 2619 ft 184 kts 95°
2026-04-27 15:48 51.34400 5.24689 2529 ft 175 kts 60°
2026-04-27 15:48 51.35187 5.26155 2319 ft 176 kts 40°
2026-04-27 15:48 51.36121 5.27435 2075 ft 178 kts 37°
2026-04-27 15:49 51.38116 5.29743 1546 ft 174 kts 35°
2026-04-27 15:49 51.39082 5.30816 1332 ft 161 kts 34°
2026-04-27 15:49 51.39966 5.31807 1120 ft 150 kts 34°
2026-04-27 15:49 51.40783 5.32718 920 ft 139 kts 36°
2026-04-27 15:50 51.41578 5.33606 735 ft 142 kts 36°
2026-04-27 15:50 51.42298 5.34419 545 ft 141 kts 34°
2026-04-27 15:50 51.43107 5.35329 366 ft 142 kts 35°
2026-04-27 15:50 51.43904 5.36216 172 ft 138 kts 34°
2026-04-27 15:51 51.44659 5.37050 90 ft 118 kts 33°
2026-04-27 15:51 51.45139 5.37587 87 ft 51 kts 35°
2026-04-27 15:51 51.45448 5.37932 88 ft 54 kts 35°
2026-04-27 15:51 51.45739 5.38258 84 ft 44 kts 35°
2026-04-27 15:52 51.45893 5.38431 89 ft 11 kts 35°
2026-04-27 15:52 51.45919 5.38544 87 ft 13 kts 119°
2026-04-27 15:52 51.45868 5.38661 88 ft 6 kts 126°
2026-04-27 15:52 51.45836 5.38731 90 ft 9 kts 126°
2026-04-27 15:53 51.45810 5.38789 87 ft 0 kts 125°
2026-04-27 15:53 51.45809 5.38791 87 ft 1 kts 125°
2026-04-27 15:53 51.45796 5.38811 87 ft 4 kts 151°
2026-04-27 15:54 51.45768 5.38836 85 ft 6 kts 135°
2026-04-27 15:54 51.45745 5.38887 89 ft 5 kts 125°
2026-04-27 15:54 51.45729 5.38923 86 ft 2 kts 125°
2026-04-27 15:54 51.45727 5.38928 87 ft 0 kts 125°